GOES 17

Last updated on Wed Jul 02 2025 00:02:22 GMT+0000 (Coordinated Universal Time)

1 43226U 18022A 25182.54842322 -.00000168 00000+0 00000+0 0 9992 2 43226 0.0494 116.5086 0000893 91.7475 174.1261 1.00421771 26908
UTC large
Height (km)
Speed (km/s)
/
Latitude / Longitude
Inclination (degrees)
Orbital Period (minutes)
Azimuth
Elevation
Range (km)
Doppler Factor

Next 0 passes for location: London (51.5072 / 0.1276)

Sorry there are no passes over London.